,,,PA_Meas_PMT16A,,PR_Meas_QMR101_102,,RH_Meas_QMH101,,SR_Meas_QMS101,,TA_Meas_QMH101,,GenWind,,GenWind,
date,time,status,PA,status,PR,status,RH,status,SR,status,TA,status,DirAvg,status,SpdAvg,
2009-11-24, 00:00:04,VALID,998.659,VALID,0,VALID,77.7992,VALID,0,VALID,27.1763,VALID,250,VALID,2.08477,
2009-11-24, 00:01:04,VALID,998.63,VALID,0,VALID,77.7992,VALID,0,VALID,27.1547,VALID,283,VALID,2.07344,
2009-11-24, 00:02:04,VALID,998.574,VALID,0,VALID,77.6238,VALID,0,VALID,27.1763,VALID,279,VALID,2.24336,
2009-11-24, 00:03:04,VALID,998.535,VALID,0,VALID,77.166,VALID,0,VALID,27.1938,VALID,253,VALID,1.64492,
2009-11-24, 00:04:04,VALID,998.542,VALID,0,VALID,77.0821,VALID,0,VALID,27.2133,VALID,260,VALID,1.61719,
2009-11-24, 00:05:04,VALID,998.517,VALID,0,VALID,77.845,VALID,0,VALID,27.1938,VALID,291,VALID,0.363672,
2009-11-24, 00:06:04,VALID,998.555,VALID,0,VALID,77.784,VALID,0,VALID,27.1157,VALID,279,VALID,1.09961,
2009-11-24, 00:07:04,VALID,998.589,VALID,0,VALID,77.5246,VALID,0,VALID,27.1547,VALID,267,VALID,2.36523,
2009-11-24, 00:08:04,VALID,998.576,VALID,0,VALID,77.5856,VALID,0,VALID,27.1938,VALID,271,VALID,1.33672,
2009-11-24, 00:09:04,VALID,998.598,VALID,0,VALID,77.3415,VALID,0,VALID,27.1938,VALID,269,VALID,1.42969,
2009-11-24, 00:10:04,VALID,998.578,VALID,0,VALID,77.5322,VALID,0,VALID,27.2154,VALID,238,VALID,1.61016,
2009-11-24, 00:11:04,VALID,998.529,VALID,0,VALID,77.6314,VALID,0,VALID,27.2133,VALID,196,VALID,1.37812,
2009-11-24, 00:12:04,VALID,998.522,VALID,0,VALID,77.5093,VALID,0,VALID,27.1743,VALID,293,VALID,1.42227,
2009-11-24, 00:13:04,VALID,998.532,VALID,0,VALID,77.433,VALID,0,VALID,27.1743,VALID,209,VALID,1.29922,
2009-11-24, 00:14:04,VALID,998.498,VALID,0,VALID,77.5551,VALID,0,VALID,27.1743,VALID,264,VALID,1.11367,
2009-11-24, 00:15:04,VALID,998.51,VALID,0,VALID,77.6466,VALID,0,VALID,27.2133,VALID,209,VALID,1.68555,
2009-11-24, 00:16:04,VALID,998.456,VALID,0,VALID,77.7535,VALID,0,VALID,27.2524,VALID,246,VALID,2.90195,
2009-11-24, 00:17:04,VALID,998.469,VALID,0,VALID,77.8755,VALID,0,VALID,27.2308,VALID,285,VALID,2.50977,
2009-11-24, 00:18:04,VALID,998.45,VALID,0,VALID,77.8221,VALID,0,VALID,27.2329,VALID,261,VALID,2.22305,
2009-11-24, 00:19:04,VALID,998.48,VALID,0,VALID,77.8221,VALID,0,VALID,27.2133,VALID,261,VALID,3.32656,
2009-11-24, 00:20:04,VALID,998.44,VALID,0,VALID,77.8145,VALID,0,VALID,27.1938,VALID,233,VALID,2.49062,
2009-11-24, 00:21:04,VALID,998.43,VALID,0,VALID,76.9829,VALID,0,VALID,27.1743,VALID,266,VALID,3.85,
2009-11-24, 00:22:04,VALID,998.4,VALID,0,VALID,77.1736,VALID,0,VALID,27.1547,VALID,236,VALID,1.52422,
2009-11-24, 00:23:04,VALID,998.37,VALID,0,VALID,76.9752,VALID,0,VALID,27.1352,VALID,260,VALID,2.63945,
2009-11-24, 00:24:04,VALID,998.392,VALID,0,VALID,77.3033,VALID,0,VALID,27.1352,VALID,226,VALID,2.09453,
2009-11-24, 00:25:04,VALID,998.35,VALID,0,VALID,77.639,VALID,0,VALID,27.1157,VALID,239,VALID,1.075,
2009-11-24, 00:26:04,VALID,998.317,VALID,0,VALID,77.5246,VALID,0,VALID,27.0766,VALID,266,VALID,0.923828,
2009-11-24, 00:27:04,VALID,998.294,VALID,0,VALID,77.2346,VALID,0,VALID,27.0961,VALID,280,VALID,2.5418,
2009-11-24, 00:28:04,VALID,998.284,VALID,0,VALID,77.5398,VALID,0,VALID,27.0571,VALID,247,VALID,1.80703,
2009-11-24, 00:29:04,VALID,998.276,VALID,0,VALID,77.7916,VALID,0,VALID,27.0396,VALID,243,VALID,1.42734,
2009-11-24, 00:30:04,VALID,998.314,VALID,0,VALID,77.9061,VALID,0,VALID,26.9985,VALID,268,VALID,0.994922,
2009-11-24, 00:31:04,VALID,998.291,VALID,0,VALID,77.7382,VALID,0,VALID,26.9985,VALID,253,VALID,2.5457,
2009-11-24, 00:32:04,VALID,998.285,VALID,0,VALID,77.8984,VALID,0,VALID,26.9985,VALID,232,VALID,1.88164,
2009-11-24, 00:33:04,VALID,998.273,VALID,0,VALID,77.7458,VALID,0,VALID,26.9985,VALID,249,VALID,2.575,
2009-11-24, 00:34:04,VALID,998.285,VALID,0,VALID,78.2494,VALID,0,VALID,26.9789,VALID,239,VALID,1.44141,
2009-11-24, 00:35:04,VALID,998.273,VALID,0,VALID,78.2036,VALID,0,VALID,26.9594,VALID,268,VALID,2.63203,
2009-11-24, 00:36:04,VALID,998.163,VALID,0,VALID,78.0434,VALID,0,VALID,26.9594,VALID,286,VALID,1.8418,
2009-11-24, 00:37:04,VALID,998.21,VALID,0,VALID,78.2418,VALID,0,VALID,26.9985,VALID,260,VALID,2.12109,
2009-11-24, 00:38:04,VALID,998.199,VALID,0,VALID,78.402,VALID,0,VALID,26.9594,VALID,262,VALID,0.8,
2009-11-24, 00:39:04,VALID,998.146,VALID,0,VALID,78.3943,VALID,0,VALID,26.9594,VALID,240,VALID,2.53047,
2009-11-24, 00:40:04,VALID,998.147,VALID,0,VALID,78.2112,VALID,0,VALID,27.0201,VALID,266,VALID,2.89063,
2009-11-24, 00:41:04,VALID,998.146,VALID,0,VALID,77.9823,VALID,0,VALID,27.0571,VALID,259,VALID,1.77188,
2009-11-24, 00:42:04,VALID,998.179,VALID,0,VALID,78.2418,VALID,0,VALID,27.0571,VALID,277,VALID,1.41055,
2009-11-24, 00:43:04,VALID,998.183,VALID,0,VALID,78.2036,VALID,0,VALID,27.0375,VALID,254,VALID,1.07461,
2009-11-24, 00:44:04,VALID,998.167,VALID,0,VALID,78.3638,VALID,0,VALID,27.0375,VALID,277,VALID,1.22461,
2009-11-24, 00:45:04,VALID,998.149,VALID,0,VALID,78.4478,VALID,0,VALID,27.0375,VALID,282,VALID,0.635938,
2009-11-24, 00:46:04,VALID,998.193,VALID,0,VALID,78.7224,VALID,0,VALID,26.9985,VALID,280,VALID,0.737109,
2009-11-24, 00:47:04,VALID,998.13,VALID,0,VALID,78.7224,VALID,0,VALID,27.0201,VALID,307,VALID,2.40859,
2009-11-24, 00:48:04,VALID,998.184,VALID,0,VALID,79.0276,VALID,0,VALID,27.0201,VALID,281,VALID,1.18125,
2009-11-24, 00:49:04,VALID,998.143,VALID,0,VALID,78.9437,VALID,0,VALID,27.0396,VALID,300,VALID,2.50469,
2009-11-24, 00:50:04,VALID,998.164,VALID,0,VALID,79.0581,VALID,0,VALID,27.0375,VALID,296,VALID,0.654688,
2009-11-24, 00:51:04,VALID,998.185,VALID,0,VALID,79.1955,VALID,0,VALID,27.0396,VALID,264,VALID,1.43125,
2009-11-24, 00:52:04,VALID,998.186,VALID,0,VALID,78.9818,VALID,0,VALID,27.018,VALID,220,VALID,0.627344,
2009-11-24, 00:53:04,VALID,998.165,VALID,0,VALID,79.0886,VALID,0,VALID,27.018,VALID,248,VALID,1.32617,
2009-11-24, 00:54:04,VALID,998.176,VALID,0,VALID,79.0505,VALID,0,VALID,27.0787,VALID,284,VALID,2.39687,
2009-11-24, 00:55:04,VALID,998.127,VALID,0,VALID,78.7682,VALID,0,VALID,27.0766,VALID,300,VALID,2.02109,
2009-11-24, 00:56:04,VALID,998.115,VALID,0,VALID,78.5088,VALID,0,VALID,27.1157,VALID,257,VALID,2.17812,
2009-11-24, 00:57:04,VALID,998.119,VALID,0,VALID,78.6385,VALID,0,VALID,27.1157,VALID,253,VALID,1.1832,
2009-11-24, 00:58:04,VALID,998.125,VALID,0,VALID,78.8292,VALID,0,VALID,27.1157,VALID,260,VALID,0.607813,
2009-11-24, 00:59:04,VALID,998.127,VALID,0,VALID,78.6843,VALID,0,VALID,27.0961,VALID,259,VALID,1.25078,
2009-11-24, 01:00:04,VALID,998.105,VALID,0,VALID,77.5704,VALID,0,VALID,27.1352,VALID,240,VALID,2.98906,
2009-11-24, 01:01:04,VALID,998.036,VALID,0,VALID,77.7611,VALID,0,VALID,27.1352,VALID,280,VALID,2.51133,
2009-11-24, 01:02:04,VALID,998.107,VALID,0,VALID,77.7077,VALID,0,VALID,27.1743,VALID,277,VALID,2.72461,
2009-11-24, 01:03:04,VALID,998.1,VALID,0,VALID,77.7916,VALID,0,VALID,27.1743,VALID,309,VALID,1.41016,
2009-11-24, 01:04:04,VALID,998.051,VALID,0,VALID,77.9289,VALID,0,VALID,27.1527,VALID,300,VALID,2.31914,
2009-11-24, 01:05:04,VALID,998.053,VALID,0,VALID,77.7535,VALID,0,VALID,27.1547,VALID,296,VALID,2.00234,
2009-11-24, 01:06:04,VALID,998.026,VALID,0,VALID,77.7306,VALID,0,VALID,27.1352,VALID,291,VALID,1.41133,
2009-11-24, 01:07:04,VALID,998.011,VALID,0,VALID,77.8526,VALID,0,VALID,27.1352,VALID,287,VALID,1.27969,
2009-11-24, 01:08:04,VALID,997.987,VALID,0,VALID,77.8069,VALID,0,VALID,27.1352,VALID,220,VALID,1.51016,
2009-11-24, 01:09:04,VALID,997.958,VALID,0,VALID,77.8832,VALID,0,VALID,27.1568,VALID,327,VALID,1.11523,
2009-11-24, 01:10:04,VALID,997.98,VALID,0,VALID,78.402,VALID,0,VALID,27.0961,VALID,217,VALID,0.791016,
2009-11-24, 01:11:04,VALID,997.968,VALID,0,VALID,77.7687,VALID,0,VALID,27.0961,VALID,287,VALID,2.23945,
2009-11-24, 01:12:04,VALID,997.958,VALID,0,VALID,77.6619,VALID,0,VALID,27.0961,VALID,264,VALID,1.16562,
2009-11-24, 01:13:04,VALID,998,VALID,0,VALID,77.3949,VALID,0,VALID,27.1352,VALID,267,VALID,1.69805,
2009-11-24, 01:14:04,VALID,997.998,VALID,0,VALID,77.3567,VALID,0,VALID,27.1547,VALID,216,VALID,0.746484,
2009-11-24, 01:15:04,VALID,997.939,VALID,0,VALID,77.5017,VALID,0,VALID,27.1743,VALID,273,VALID,2.82891,
2009-11-24, 01:16:04,VALID,997.886,VALID,0,VALID,76.7998,VALID,0,VALID,27.1743,VALID,255,VALID,3.29453,
2009-11-24, 01:17:04,VALID,997.955,VALID,0,VALID,76.5938,VALID,0,VALID,27.1938,VALID,264,VALID,3.59023,
2009-11-24, 01:18:04,VALID,997.933,VALID,0,VALID,76.7769,VALID,0,VALID,27.1938,VALID,256,VALID,1.57969,
2009-11-24, 01:19:04,VALID,997.883,VALID,0,VALID,76.8761,VALID,0,VALID,27.2133,VALID,286,VALID,2.6375,
2009-11-24, 01:20:04,VALID,997.903,VALID,0,VALID,76.6166,VALID,0,VALID,27.2133,VALID,254,VALID,1.625,
2009-11-24, 01:21:04,VALID,997.845,VALID,0,VALID,76.9066,VALID,0,VALID,27.2154,VALID,196,VALID,0.964844,
2009-11-24, 01:22:04,VALID,997.874,VALID,0,VALID,76.5632,VALID,0,VALID,27.1938,VALID,290,VALID,1.625,
2009-11-24, 01:23:04,VALID,997.848,VALID,0,VALID,76.548,VALID,0,VALID,27.1938,VALID,265,VALID,1.93242,
2009-11-24, 01:24:04,VALID,997.901,VALID,0,VALID,76.7006,VALID,0,VALID,27.1938,VALID,261,VALID,2.33867,
2009-11-24, 01:25:04,VALID,997.864,VALID,0,VALID,76.7921,VALID,0,VALID,27.1938,VALID,256,VALID,1.39102,
2009-11-24, 01:26:04,VALID,997.878,VALID,0,VALID,76.8913,VALID,0,VALID,27.1743,VALID,259,VALID,1.30625,
2009-11-24, 01:27:04,VALID,997.869,VALID,0,VALID,76.7845,VALID,0,VALID,27.1938,VALID,287,VALID,2.31367,
2009-11-24, 01:28:04,VALID,997.86,VALID,0,VALID,77.1049,VALID,0,VALID,27.1959,VALID,300,VALID,1.14492,
2009-11-24, 01:29:04,VALID,997.853,VALID,0,VALID,77.1736,VALID,0,VALID,27.1547,VALID,199,VALID,0.766016,
2009-11-24, 01:30:04,VALID,997.816,VALID,0,VALID,76.8989,VALID,0,VALID,27.1547,VALID,281,VALID,2.3582,
2009-11-24, 01:31:04,VALID,997.807,VALID,0,VALID,77.2499,VALID,0,VALID,27.1352,VALID,250,VALID,1.17148,
2009-11-24, 01:32:04,VALID,997.832,VALID,0,VALID,77.1278,VALID,0,VALID,27.1352,VALID,270,VALID,1.23906,
2009-11-24, 01:33:04,VALID,997.828,VALID,0,VALID,77.0286,VALID,0,VALID,27.1547,VALID,267,VALID,1.42344,
2009-11-24, 01:34:04,VALID,997.835,VALID,0,VALID,77.0363,VALID,0,VALID,27.1547,VALID,300,VALID,1.51328,
2009-11-24, 01:35:04,VALID,997.844,VALID,0,VALID,77.494,VALID,0,VALID,27.1352,VALID,303,VALID,0.401953,
2009-11-24, 01:36:04,VALID,997.85,VALID,0,VALID,77.4635,VALID,0,VALID,27.1157,VALID,261,VALID,2.00078,
2009-11-24, 01:37:04,VALID,997.81,VALID,0,VALID,77.5322,VALID,0,VALID,27.1352,VALID,244,VALID,1.99492,
2009-11-24, 01:38:04,VALID,997.833,VALID,0,VALID,77.3491,VALID,0,VALID,27.1763,VALID,242,VALID,2.53359,
2009-11-24, 01:39:04,VALID,997.828,VALID,0,VALID,77.6466,VALID,0,VALID,27.1547,VALID,260,VALID,0.567969,
2009-11-24, 01:40:04,VALID,997.758,VALID,0,VALID,77.4406,VALID,0,VALID,27.1547,VALID,269,VALID,2.81445,
2009-11-24, 01:41:04,VALID,997.817,VALID,0,VALID,77.5017,VALID,0,VALID,27.1547,VALID,264,VALID,1.97852,
2009-11-24, 01:42:04,VALID,997.825,VALID,0,VALID,77.8298,VALID,0,VALID,27.1352,VALID,279,VALID,1.40039,
2009-11-24, 01:43:04,VALID,997.796,VALID,0,VALID,77.9442,VALID,0,VALID,27.1373,VALID,300,VALID,1.49219,
2009-11-24, 01:44:04,VALID,997.789,VALID,0,VALID,78.0281,VALID,0,VALID,27.1177,VALID,251,VALID,1.75859,
2009-11-24, 01:45:04,VALID,997.767,VALID,0,VALID,78.0358,VALID,0,VALID,27.1373,VALID,237,VALID,1.26797,
2009-11-24, 01:46:04,VALID,997.728,VALID,0,VALID,77.9976,VALID,0,VALID,27.0961,VALID,283,VALID,1.11406,
2009-11-24, 01:47:04,VALID,997.738,VALID,0,VALID,78.0892,VALID,0,VALID,27.1157,VALID,259,VALID,1.875,
2009-11-24, 01:48:04,VALID,997.693,VALID,0,VALID,78.0815,VALID,0,VALID,27.1177,VALID,278,VALID,1.6,
2009-11-24, 01:49:04,VALID,997.697,VALID,0,VALID,78.2189,VALID,0,VALID,27.0982,VALID,256,VALID,1.09102,
2009-11-24, 01:50:04,VALID,997.718,VALID,0,VALID,78.463,VALID,0,VALID,27.0571,VALID,253,VALID,1.3332,
2009-11-24, 01:51:04,VALID,997.707,VALID,0,VALID,78.8216,VALID,0,VALID,27.0591,VALID,285,VALID,0.660156,
2009-11-24, 01:52:04,VALID,997.698,VALID,0,VALID,78.9132,VALID,0,VALID,27.0396,VALID,295,VALID,0.753516,
2009-11-24, 01:53:04,VALID,997.678,VALID,0,VALID,78.9895,VALID,0,VALID,26.9985,VALID,256,VALID,0.502344,
2009-11-24, 01:54:04,VALID,997.63,VALID,0,VALID,78.8979,VALID,0,VALID,26.9985,VALID,263,VALID,1.45273,
2009-11-24, 01:55:04,VALID,997.614,VALID,0,VALID,79.1878,VALID,0,VALID,27.0005,VALID,253,VALID,1.15508,
2009-11-24, 01:56:04,VALID,997.57,VALID,0,VALID,78.8521,VALID,0,VALID,27.0201,VALID,260,VALID,1.82969,
2009-11-24, 01:57:04,VALID,997.622,VALID,0,VALID,78.6995,VALID,0,VALID,27.0375,VALID,261,VALID,1.18281,
2009-11-24, 01:58:04,VALID,997.625,VALID,0,VALID,78.8903,VALID,0,VALID,27.0375,VALID,290,VALID,2.04023,
2009-11-24, 01:59:04,VALID,997.633,VALID,0,VALID,78.9055,VALID,0,VALID,26.9985,VALID,262,VALID,0.721875,
2009-11-24, 02:00:04,VALID,997.594,VALID,0,VALID,78.8521,VALID,0,VALID,27.0201,VALID,233,VALID,1.8332,
2009-11-24, 02:01:04,VALID,997.635,VALID,0,VALID,78.524,VALID,0,VALID,26.9985,VALID,277,VALID,2.70391,
2009-11-24, 02:02:04,VALID,997.568,VALID,0,VALID,78.6003,VALID,0,VALID,27.0375,VALID,300,VALID,1.06055,
2009-11-24, 02:03:04,VALID,997.564,VALID,0,VALID,78.7148,VALID,0,VALID,27.0375,VALID,251,VALID,0.982422,
2009-11-24, 02:04:04,VALID,997.578,VALID,0,VALID,78.9132,VALID,0,VALID,27.0396,VALID,269,VALID,2.3793,
2009-11-24, 02:05:04,VALID,997.535,VALID,0,VALID,78.8674,VALID,0,VALID,27.0571,VALID,228,VALID,1.54648,
2009-11-24, 02:06:04,VALID,997.532,VALID,0,VALID,78.875,VALID,0,VALID,27.0571,VALID,241,VALID,1.65586,
2009-11-24, 02:07:04,VALID,997.563,VALID,0,VALID,78.6919,VALID,0,VALID,27.0375,VALID,260,VALID,1.45,
2009-11-24, 02:08:04,VALID,997.593,VALID,0,VALID,78.7911,VALID,0,VALID,27.0571,VALID,261,VALID,1.04336,
2009-11-24, 02:09:04,VALID,997.575,VALID,0,VALID,78.5851,VALID,0,VALID,27.0375,VALID,278,VALID,1.27969,
2009-11-24, 02:10:04,VALID,997.613,VALID,0,VALID,78.8521,VALID,0,VALID,27.0571,VALID,271,VALID,0.456641,
2009-11-24, 02:11:04,VALID,997.594,VALID,0,VALID,78.875,VALID,0,VALID,27.0375,VALID,220,VALID,0.676172,
2009-11-24, 02:12:04,VALID,997.632,VALID,0,VALID,79.0963,VALID,0,VALID,26.9985,VALID,265,VALID,0.861719,
2009-11-24, 02:13:04,VALID,997.614,VALID,0,VALID,79.0276,VALID,0,VALID,26.9985,VALID,228,VALID,0.874219,
2009-11-24, 02:14:04,VALID,997.601,VALID,0,VALID,79.1039,VALID,0,VALID,26.9985,VALID,230,VALID,0.951953,
2009-11-24, 02:15:04,VALID,997.643,VALID,0,VALID,78.9971,VALID,0,VALID,27.018,VALID,256,VALID,0.554688,
2009-11-24, 02:16:04,VALID,997.606,VALID,0,VALID,79.1497,VALID,0,VALID,26.9985,VALID,273,VALID,0.705859,
2009-11-24, 02:17:04,VALID,997.589,VALID,0,VALID,78.524,VALID,0,VALID,26.9985,VALID,244,VALID,1.77773,
2009-11-24, 02:18:04,VALID,997.643,VALID,0,VALID,78.5393,VALID,0,VALID,27.0396,VALID,260,VALID,2.51875,
2009-11-24, 02:19:04,VALID,997.633,VALID,0,VALID,78.1807,VALID,0,VALID,27.0571,VALID,223,VALID,1.49531,
2009-11-24, 02:20:04,VALID,997.655,VALID,0,VALID,78.2952,VALID,0,VALID,27.0375,VALID,258,VALID,1.42656,
2009-11-24, 02:21:04,VALID,997.625,VALID,0,VALID,78.5775,VALID,0,VALID,27.0375,VALID,220,VALID,1.02656,
2009-11-24, 02:22:04,VALID,997.61,VALID,0,VALID,78.4935,VALID,0,VALID,27.0375,VALID,218,VALID,1.84336,
2009-11-24, 02:23:04,VALID,997.64,VALID,0,VALID,78.7758,VALID,0,VALID,26.9985,VALID,212,VALID,0.744531,
2009-11-24, 02:24:04,VALID,997.648,VALID,0,VALID,78.7529,VALID,0,VALID,26.9985,VALID,214,VALID,1.88203,
2009-11-24, 02:25:04,VALID,997.657,VALID,0,VALID,78.9513,VALID,0,VALID,26.9789,VALID,253,VALID,1.48164,
2009-11-24, 02:26:04,VALID,997.646,VALID,0,VALID,79.0352,VALID,0,VALID,26.9789,VALID,231,VALID,1.08164,
2009-11-24, 02:27:04,VALID,997.623,VALID,0,VALID,79.1421,VALID,0,VALID,26.9594,VALID,230,VALID,0.7,
2009-11-24, 02:28:04,VALID,997.59,VALID,0,VALID,79.0963,VALID,0,VALID,26.9399,VALID,206,VALID,1.78672,
2009-11-24, 02:29:04,VALID,997.624,VALID,0,VALID,79.5312,VALID,0,VALID,26.9204,VALID,299,VALID,0.862109,
2009-11-24, 02:30:04,VALID,997.589,VALID,0,VALID,79.2336,VALID,0,VALID,26.9008,VALID,238,VALID,1.3082,
2009-11-24, 02:31:04,VALID,997.612,VALID,0,VALID,79.4625,VALID,0,VALID,26.8813,VALID,224,VALID,1.80547,
2009-11-24, 02:32:04,VALID,997.604,VALID,0,VALID,79.348,VALID,0,VALID,26.8618,VALID,237,VALID,0.877734,
2009-11-24, 02:33:04,VALID,997.586,VALID,0,VALID,79.1726,VALID,0,VALID,26.9008,VALID,280,VALID,1.95117,
2009-11-24, 02:34:04,VALID,997.565,VALID,0,VALID,78.9589,VALID,0,VALID,26.9008,VALID,296,VALID,1.18594,
2009-11-24, 02:35:04,VALID,997.541,VALID,0,VALID,78.7224,VALID,0,VALID,26.9594,VALID,280,VALID,1.76484,
2009-11-24, 02:36:04,VALID,997.553,VALID,0,VALID,78.5393,VALID,0,VALID,26.9789,VALID,287,VALID,1.34258,
2009-11-24, 02:37:04,VALID,997.523,VALID,0,VALID,78.1578,VALID,0,VALID,26.9378,VALID,228,VALID,1.65039,
2009-11-24, 02:38:04,VALID,997.574,VALID,0,VALID,77.784,VALID,0,VALID,26.9789,VALID,282,VALID,1.86016,
2009-11-24, 02:39:04,VALID,997.6,VALID,0,VALID,78.0052,VALID,0,VALID,27.018,VALID,270,VALID,1.16133,
2009-11-24, 02:40:04,VALID,997.586,VALID,0,VALID,77.8755,VALID,0,VALID,27.018,VALID,265,VALID,1.1332,
2009-11-24, 02:41:04,VALID,997.584,VALID,0,VALID,77.9137,VALID,0,VALID,26.9985,VALID,258,VALID,1.2875,
2009-11-24, 02:42:04,VALID,997.586,VALID,0,VALID,78.0892,VALID,0,VALID,26.9985,VALID,244,VALID,1.77695,
2009-11-24, 02:43:04,VALID,997.518,VALID,0,VALID,76.8608,VALID,0,VALID,26.9574,VALID,281,VALID,2.1418,
2009-11-24, 02:44:04,VALID,997.515,VALID,0,VALID,76.5098,VALID,0,VALID,26.9985,VALID,292,VALID,2.83437,
2009-11-24, 02:45:04,VALID,997.553,VALID,0,VALID,77.0058,VALID,0,VALID,27.018,VALID,230,VALID,1.13789,
2009-11-24, 02:46:04,VALID,997.576,VALID,0,VALID,76.9829,VALID,0,VALID,26.9964,VALID,262,VALID,1.71484,
2009-11-24, 02:47:04,VALID,997.557,VALID,0,VALID,76.5022,VALID,0,VALID,26.9985,VALID,223,VALID,2.05508,
2009-11-24, 02:48:04,VALID,997.566,VALID,0,VALID,76.5785,VALID,0,VALID,26.9985,VALID,266,VALID,1.6332,
2009-11-24, 02:49:04,VALID,997.544,VALID,0,VALID,76.6319,VALID,0,VALID,27.018,VALID,267,VALID,0.931641,
2009-11-24, 02:50:04,VALID,997.539,VALID,0,VALID,76.4488,VALID,0,VALID,27.016,VALID,219,VALID,1.61133,
2009-11-24, 02:51:04,VALID,997.532,VALID,0,VALID,76.6395,VALID,0,VALID,26.9964,VALID,246,VALID,1.01523,
2009-11-24, 02:52:04,VALID,997.508,VALID,0,VALID,77.021,VALID,0.112286,VALID,26.9985,VALID,228,VALID,0.521484,
2009-11-24, 02:53:04,VALID,997.588,VALID,0,VALID,77.1126,VALID,0,VALID,26.9594,VALID,234,VALID,1.14805,
2009-11-24, 02:54:04,VALID,997.516,VALID,0,VALID,76.9905,VALID,0,VALID,26.9399,VALID,277,VALID,1.8582,
2009-11-24, 02:55:04,VALID,997.547,VALID,0,VALID,76.9981,VALID,0,VALID,26.9594,VALID,256,VALID,1.52813,
2009-11-24, 02:56:04,VALID,997.555,VALID,0,VALID,77.4101,VALID,0,VALID,26.9594,VALID,289,VALID,0.610547,
2009-11-24, 02:57:04,VALID,997.562,VALID,0,VALID,77.2499,VALID,0,VALID,26.9399,VALID,247,VALID,1.19531,
2009-11-24, 02:58:04,VALID,997.549,VALID,0,VALID,77.1965,VALID,0,VALID,26.9204,VALID,311,VALID,0.617969,
2009-11-24, 02:59:04,VALID,997.529,VALID,0,VALID,77.227,VALID,0,VALID,26.9008,VALID,303,VALID,1.36641,
2009-11-24, 03:00:04,VALID,997.53,VALID,0,VALID,77.433,VALID,0,VALID,26.9008,VALID,247,VALID,0.663281,
2009-11-24, 03:01:04,VALID,997.521,VALID,0,VALID,77.1889,VALID,0,VALID,26.8813,VALID,279,VALID,1.32695,
2009-11-24, 03:02:04,VALID,997.495,VALID,0,VALID,77.227,VALID,0,VALID,26.8813,VALID,289,VALID,1.26992,
2009-11-24, 03:03:04,VALID,997.497,VALID,0,VALID,77.021,VALID,0,VALID,26.9204,VALID,257,VALID,1.45273,
2009-11-24, 03:04:04,VALID,997.486,VALID,0,VALID,76.9523,VALID,0,VALID,26.9008,VALID,257,VALID,1.13398,
2009-11-24, 03:05:04,VALID,997.482,VALID,0,VALID,77.1126,VALID,0,VALID,26.9008,VALID,229,VALID,0.704687,
2009-11-24, 03:06:04,VALID,997.482,VALID,0,VALID,77.2194,VALID,0,VALID,26.9008,VALID,249,VALID,1.45039,
2009-11-24, 03:07:04,VALID,997.48,VALID,0,VALID,77.1965,VALID,0,VALID,26.9008,VALID,235,VALID,0.892187,
2009-11-24, 03:08:04,VALID,997.461,VALID,0,VALID,77.2499,VALID,0,VALID,26.8813,VALID,247,VALID,0.798047,
2009-11-24, 03:09:05,VALID,997.473,VALID,0,VALID,77.3643,VALID,0,VALID,26.8618,VALID,278,VALID,1.06328,
2009-11-24, 03:10:05,VALID,997.511,VALID,0,VALID,77.4559,VALID,0,VALID,26.8618,VALID,264,VALID,1.42695,
2009-11-24, 03:11:05,VALID,997.466,VALID,0,VALID,77.4559,VALID,0,VALID,26.8618,VALID,250,VALID,0.6625,
2009-11-24, 03:12:05,VALID,997.471,VALID,0,VALID,77.8069,VALID,0,VALID,26.8618,VALID,219,VALID,1.39766,
2009-11-24, 03:13:05,VALID,997.445,VALID,0,VALID,77.8679,VALID,0,VALID,26.8422,VALID,198,VALID,0.813281,
2009-11-24, 03:14:05,VALID,997.452,VALID,0,VALID,77.7687,VALID,0,VALID,26.8422,VALID,247,VALID,1.08047,
2009-11-24, 03:15:05,VALID,997.435,VALID,0,VALID,78.0129,VALID,0,VALID,26.8618,VALID,223,VALID,2.67422,
2009-11-24, 03:16:05,VALID,997.478,VALID,0,VALID,77.9442,VALID,0,VALID,26.9008,VALID,232,VALID,1.55547,
2009-11-24, 03:17:05,VALID,997.485,VALID,0,VALID,77.7001,VALID,0,VALID,26.9008,VALID,265,VALID,1.0668,
2009-11-24, 03:18:05,VALID,997.437,VALID,0,VALID,77.845,VALID,0,VALID,26.9008,VALID,230,VALID,1.14219,
2009-11-24, 03:19:05,VALID,997.463,VALID,0,VALID,78.0434,VALID,0,VALID,26.9008,VALID,280,VALID,1.78867,
2009-11-24, 03:20:05,VALID,997.472,VALID,0,VALID,78.1044,VALID,0,VALID,26.9204,VALID,208,VALID,1.34687,
2009-11-24, 03:21:05,VALID,997.483,VALID,0,VALID,77.8298,VALID,0,VALID,26.8813,VALID,218,VALID,1.86953,
2009-11-24, 03:22:05,VALID,997.477,VALID,0,VALID,77.9595,VALID,0,VALID,26.9594,VALID,250,VALID,2.15469,
2009-11-24, 03:23:05,VALID,997.513,VALID,0,VALID,77.5627,VALID,0,VALID,26.9399,VALID,286,VALID,1.08047,
2009-11-24, 03:24:05,VALID,997.521,VALID,0,VALID,77.6848,VALID,0,VALID,26.9399,VALID,281,VALID,1.13086,
2009-11-24, 03:25:05,VALID,997.551,VALID,0,VALID,77.7763,VALID,0,VALID,26.9204,VALID,236,VALID,1.13633,
2009-11-24, 03:26:05,VALID,997.553,VALID,0,VALID,77.8374,VALID,0,VALID,26.9008,VALID,259,VALID,0.441016,
2009-11-24, 03:27:05,VALID,997.568,VALID,0,VALID,78.0129,VALID,0,VALID,26.8618,VALID,240,VALID,1.36992,
2009-11-24, 03:28:05,VALID,997.503,VALID,0,VALID,77.8069,VALID,0,VALID,26.9008,VALID,288,VALID,2.05234,
2009-11-24, 03:29:05,VALID,997.507,VALID,0,VALID,77.7382,VALID,0,VALID,26.9204,VALID,293,VALID,1.63164,
2009-11-24, 03:30:05,VALID,997.557,VALID,0,VALID,77.9366,VALID,0,VALID,26.9008,VALID,262,VALID,0.798437,
2009-11-24, 03:31:05,VALID,997.534,VALID,0,VALID,77.8603,VALID,0,VALID,26.9008,VALID,288,VALID,1.7332,
2009-11-24, 03:32:05,VALID,997.524,VALID,0,VALID,77.8298,VALID,0,VALID,26.9204,VALID,234,VALID,0.759375,
2009-11-24, 03:33:05,VALID,997.557,VALID,0,VALID,77.9061,VALID,0,VALID,26.9204,VALID,252,VALID,1.40156,
2009-11-24, 03:34:05,VALID,997.54,VALID,0,VALID,78.051,VALID,0,VALID,26.9399,VALID,281,VALID,1.11563,
2009-11-24, 03:35:05,VALID,997.552,VALID,0,VALID,78.1197,VALID,0,VALID,26.981,VALID,266,VALID,0.969922,
2009-11-24, 03:36:05,VALID,997.537,VALID,0,VALID,78.196,VALID,0,VALID,26.9594,VALID,242,VALID,0.928125,
2009-11-24, 03:37:05,VALID,997.558,VALID,0,VALID,78.2494,VALID,0,VALID,26.9594,VALID,249,VALID,0.941797,
2009-11-24, 03:38:05,VALID,997.56,VALID,0,VALID,78.318,VALID,0,VALID,26.9594,VALID,228,VALID,0.780469,
2009-11-24, 03:39:05,VALID,997.548,VALID,0,VALID,78.402,VALID,0,VALID,26.9615,VALID,217,VALID,0.9625,
2009-11-24, 03:40:05,VALID,997.584,VALID,0,VALID,78.7377,VALID,0,VALID,26.9399,VALID,222,VALID,0.875781,
2009-11-24, 03:41:05,VALID,997.581,VALID,0,VALID,78.5469,VALID,0,VALID,26.9008,VALID,239,VALID,1.23633,
2009-11-24, 03:42:05,VALID,997.626,VALID,0,VALID,78.73,VALID,0,VALID,26.9204,VALID,217,VALID,0.567969,
2009-11-24, 03:43:05,VALID,997.634,VALID,0,VALID,79.0658,VALID,0,VALID,26.8813,VALID,196,VALID,0.345703,
2009-11-24, 03:44:05,VALID,997.659,VALID,0,VALID,79.1878,VALID,0,VALID,26.8422,VALID,234,VALID,2.12109,
2009-11-24, 03:45:05,VALID,997.638,VALID,0,VALID,79.2031,VALID,0,VALID,26.8618,VALID,230,VALID,0.997656,
2009-11-24, 03:46:05,VALID,997.682,VALID,0,VALID,79.3557,VALID,0,VALID,26.8813,VALID,239,VALID,1.00508,